Weather History for Carmi, IL

Change the Weather History Date:

Wednesday, November 6, 2013

  Actual Average (KEVV) Record (KEVV)
Temperature  
Mean Temperature 52 °F 51 °F  
Max Temperature 61 °F 61 °F 78 °F (1916)
Min Temperature 41 °F 40 °F 23 °F (2010)
Degree Days  
Heating Degree Days 14 15  
Month to date heating degree days 82  
Since 1 July heating degree days 385  
Cooling Degree Days 0 0  
Month to date cooling degree days 0  
Year to date cooling degree days 1395  
Growing Degree Days 2 (Base 50)    
Moisture  
Dew Point 49 °F    
Average Humidity 83    
Maximum Humidity 94    
Minimum Humidity 56    
Precipitation  
Precipitation 0.03 in 0.13 in 1.23 in (1951)
Month to date precipitation 0.79  
Year to date precipitation 38.01  
Snow  
Snow 0.00 in 0.00 in 1.00 in (1971)
Month to date snowfall 0.0  
Since 1 July snowfall 0.2  
Since 1 September snowfall 0.2  
Snow Depth -    
Sea Level Pressure  
Sea Level Pressure 30.09 in    
Wind  
Wind Speed 13 mph (SW)    
Max Wind Speed 18 mph    
Max Gust Speed 25 mph    
Visibility 9 miles    
Events Rain    
T = Trace of Precipitation, MM = Missing Value Source: NWS Daily Summary

Daily Weather History Graph

Daily Weather History Graph

Search for Another Location

Airport:

Trip Planner

Search our weather history database for the weather conditions in past years. The results will help you decide how hot, cold, wet, or windy it might be!

Date:

Astronomy

Nov. 06, 2013 Rise Set
Actual Time 6:23 AM CST 4:47 PM CST
Civil Twilight 5:56 AM CST 5:15 PM CST
Nautical Twilight 5:24 AM CST 5:46 PM CST
Astronomical Twilight 4:54 AM CST 6:17 PM CST
Moon 9:37 AM CST (11/6) 7:53 PM CST (11/6)
Length of Visible Light 11h 19m
Length of Day
10h 23m
Waxing Crescent, 14% of the Moon is Illuminated
Nov 6
Waxing Crescent
Nov 9
First Quarter
Nov 17
Full
Nov 25
Last Quarter
Dec 2
New

Hourly Weather History & Observations

Time (CST) Temp. Windchill Dew Point Humidity Pressure Visibility Wind Dir Wind Speed Gust Speed Precip Events Conditions
12:35 AM 61.3 °F - 48.6 °F 63% 30.12 in 10.0 mi South 13.8 mph - N/A   Overcast
12:55 AM 61.7 °F - 48.6 °F 62% 30.12 in 10.0 mi South 15.0 mph - N/A   Overcast
1:15 AM 61.0 °F - 49.1 °F 65% 30.12 in 10.0 mi South 11.5 mph - N/A   Overcast
1:55 AM 61.2 °F - 48.6 °F 63% 30.09 in 10.0 mi South 15.0 mph - N/A   Overcast
2:15 AM 61.0 °F - 48.4 °F 63% 30.08 in 10.0 mi South 17.3 mph 23.0 mph N/A   Mostly Cloudy
2:35 AM 60.8 °F - 48.4 °F 64% 30.08 in 10.0 mi South 13.8 mph - N/A   Mostly Cloudy
2:55 AM 60.8 °F - 48.0 °F 63% 30.07 in 10.0 mi South 13.8 mph 21.9 mph N/A   Mostly Cloudy
3:15 AM 60.8 °F - 47.3 °F 61% 30.06 in 10.0 mi South 15.0 mph - N/A   Scattered Clouds
3:35 AM 61.0 °F - 46.8 °F 59% 30.05 in 10.0 mi South 16.1 mph 23.0 mph N/A   Clear
3:55 AM 61.0 °F - 46.6 °F 59% 30.05 in 10.0 mi South 18.4 mph 23.0 mph N/A   Clear
4:15 AM 61.2 °F - 46.4 °F 58% 30.05 in 10.0 mi South 16.1 mph 25.3 mph N/A   Clear
4:35 AM 60.6 °F - 46.4 °F 59% 30.05 in 10.0 mi South 13.8 mph 23.0 mph N/A Rain Light Rain
4:55 AM 61.0 °F - 45.7 °F 57% 30.05 in 10.0 mi South 16.1 mph 21.9 mph N/A   Clear
5:15 AM 61.0 °F - 45.3 °F 56% 30.05 in 10.0 mi South 15.0 mph 24.2 mph N/A   Scattered Clouds
5:35 AM 60.3 °F - 46.0 °F 59% 30.05 in 10.0 mi South 16.1 mph 20.7 mph N/A Rain Light Rain
5:55 AM 58.6 °F - 47.7 °F 67% 30.04 in 10.0 mi South 13.8 mph - N/A Rain Rain
6:15 AM 57.9 °F - 48.4 °F 71% 30.03 in 10.0 mi South 15.0 mph 18.4 mph N/A   Light Drizzle
6:35 AM 58.1 °F - 48.6 °F 71% 30.03 in 10.0 mi South 13.8 mph - N/A Rain Light Rain
6:55 AM 57.6 °F - 48.9 °F 73% 30.02 in 10.0 mi South 12.7 mph - N/A Rain Light Rain
7:15 AM 57.6 °F - 49.1 °F 73% 30.03 in 10.0 mi South 12.7 mph - 0.01 in Rain Rain
7:35 AM 57.0 °F - 50.0 °F 77% 30.03 in 10.0 mi South 13.8 mph - 0.01 in Rain Light Rain
7:55 AM 56.8 °F - 50.7 °F 80% 30.04 in 10.0 mi South 12.7 mph - 0.01 in Rain Rain
8:15 AM 55.9 °F - 51.8 °F 86% 30.04 in 7.0 mi South 13.8 mph 17.3 mph N/A Rain Rain
8:35 AM 56.3 °F - 52.2 °F 86% 30.03 in 10.0 mi South 13.8 mph - N/A Rain Light Rain
8:55 AM 56.5 °F - 52.3 °F 86% 30.03 in 10.0 mi South 11.5 mph - N/A   Light Drizzle
9:15 AM 56.8 °F - 52.9 °F 87% 30.04 in 10.0 mi South 12.7 mph - N/A Rain Light Rain
9:35 AM 57.2 °F - 52.9 °F 85% 30.06 in 4.0 mi SSW 10.4 mph 20.7 mph N/A Rain Rain
9:55 AM 56.5 °F - 53.8 °F 91% 30.05 in 3.0 mi SSW 11.5 mph 17.3 mph N/A Rain Rain
10:15 AM 56.5 °F - 54.5 °F 93% 30.07 in 2.5 mi SW 8.1 mph - N/A   Drizzle
10:35 AM 56.5 °F - 54.7 °F 94% 30.06 in 3.0 mi SSW 8.1 mph - N/A Rain Light Rain
10:55 AM 56.7 °F - 54.7 °F 93% 30.05 in 7.0 mi SSW 11.5 mph 16.1 mph N/A   Light Drizzle
11:15 AM 57.2 °F - 55.4 °F 94% 30.02 in 10.0 mi South 10.4 mph - N/A Rain Light Rain
11:35 AM 57.6 °F - 55.8 °F 94% 30.03 in 10.0 mi South 11.5 mph - N/A   Overcast
11:55 AM 58.1 °F - 55.8 °F 92% 30.03 in 10.0 mi South 13.8 mph 19.6 mph N/A   Overcast
12:15 PM 58.6 °F - 56.3 °F 92% 30.02 in 10.0 mi South 11.5 mph - N/A Rain Light Rain
12:35 PM 58.8 °F - 56.1 °F 91% 30.01 in 10.0 mi South 12.7 mph - N/A   Overcast
12:55 PM 59.0 °F - 55.8 °F 89% 30.01 in 10.0 mi SSW 12.7 mph 18.4 mph N/A   Overcast
1:15 PM 59.0 °F - 55.8 °F 89% 30.02 in 10.0 mi SW 12.7 mph - N/A   Overcast
1:35 PM 59.0 °F - 55.6 °F 88% 30.02 in 10.0 mi SSW 13.8 mph 18.4 mph N/A   Overcast
1:55 PM 59.0 °F - 55.4 °F 88% 30.02 in 10.0 mi SW 9.2 mph 16.1 mph N/A   Overcast
2:15 PM 59.0 °F - 55.4 °F 88% 30.02 in 10.0 mi SW 12.7 mph - N/A   Overcast
2:35 PM 58.3 °F - 55.4 °F 90% 30.02 in 3.0 mi SW 9.2 mph - N/A   Overcast
2:55 PM 57.7 °F - 55.8 °F 93% 30.02 in 2.0 mi WSW 10.4 mph - N/A   Overcast
3:15 PM 57.4 °F - 55.8 °F 94% 30.03 in 2.5 mi WSW 6.9 mph - N/A Rain Light Rain
3:35 PM 56.5 °F - 54.3 °F 92% 30.04 in 7.0 mi West 16.1 mph 21.9 mph N/A Rain Light Rain
3:55 PM 54.5 °F - 52.7 °F 94% 30.06 in 7.0 mi WNW 12.7 mph - N/A   Light Drizzle
4:15 PM 53.2 °F - 51.3 °F 93% 30.06 in 5.0 mi NW 15.0 mph - 0.01 in Rain Rain
4:35 PM 52.7 °F - 50.9 °F 94% 30.08 in 5.0 mi West 9.2 mph - 0.01 in Rain Light Rain
4:55 PM 51.8 °F - 50.0 °F 94% 30.10 in 7.0 mi WNW 13.8 mph - 0.01 in Rain Light Rain
5:15 PM 50.0 °F - 47.8 °F 92% 30.10 in 7.0 mi WNW 15.0 mph 23.0 mph N/A Rain Light Rain
5:35 PM 48.9 °F - 47.1 °F 93% 30.12 in 7.0 mi WNW 17.3 mph 21.9 mph N/A Rain Light Rain
5:55 PM 48.2 °F - 46.4 °F 93% 30.13 in 7.0 mi NW 15.0 mph 21.9 mph N/A Rain Rain
6:15 PM 46.9 °F - 45.1 °F 93% 30.14 in 7.0 mi NW 12.7 mph - N/A Rain Light Rain
6:35 PM 46.4 °F 41.5 °F 44.8 °F 94% 30.14 in 7.0 mi NW 10.4 mph 18.4 mph N/A Rain Light Rain
6:55 PM 46.0 °F 39.3 °F 44.2 °F 93% 30.17 in 10.0 mi WNW 16.1 mph 23.0 mph N/A Rain Light Rain
7:15 PM 45.7 °F 40.6 °F 43.7 °F 93% 30.15 in 10.0 mi NNW 10.4 mph - N/A Rain Light Rain
7:35 PM 45.0 °F 37.4 °F 42.8 °F 92% 30.16 in 10.0 mi NW 18.4 mph 25.3 mph 0.01 in Rain Light Rain
7:55 PM 44.8 °F 38.3 °F 41.9 °F 90% 30.18 in 10.0 mi NW 13.8 mph 19.6 mph 0.01 in   Overcast
8:15 PM 44.8 °F 39.0 °F 41.9 °F 90% 30.18 in 10.0 mi NW 11.5 mph - N/A Rain Light Rain
8:35 PM 44.6 °F 39.2 °F 41.9 °F 90% 30.18 in 10.0 mi NW 10.4 mph - N/A Rain Light Rain
8:55 PM 44.6 °F 38.8 °F 41.7 °F 90% 30.18 in 10.0 mi NW 11.5 mph - N/A   Overcast
9:15 PM 44.6 °F 39.2 °F 41.5 °F 89% 30.19 in 10.0 mi NW 10.4 mph - N/A   Overcast
9:35 PM 44.6 °F 40.2 °F 41.5 °F 89% 30.20 in 10.0 mi NW 8.1 mph - N/A   Mostly Cloudy
9:55 PM 44.2 °F 39.2 °F 41.2 °F 89% 30.20 in 10.0 mi NW 9.2 mph - N/A   Scattered Clouds
10:15 PM 44.1 °F 39.0 °F 41.0 °F 89% 30.21 in 10.0 mi NW 9.2 mph - N/A   Clear
10:35 PM 43.9 °F 39.9 °F 41.0 °F 90% 30.20 in 10.0 mi WNW 6.9 mph - N/A   Clear
10:55 PM 43.7 °F 39.1 °F 41.0 °F 90% 30.21 in 10.0 mi WNW 8.1 mph - N/A   Clear
11:15 PM 43.2 °F 38.4 °F 41.0 °F 92% 30.21 in 10.0 mi WNW 8.1 mph - N/A   Clear
11:35 PM 42.3 °F 37.3 °F 40.1 °F 92% 30.21 in 10.0 mi WNW 8.1 mph - N/A   Clear
11:55 PM 41.5 °F 37.1 °F 39.7 °F 93% 30.22 in 10.0 mi WNW 6.9 mph - N/A   Clear